Location: Bretagne
(43.8474°N, 0.4650°W)
Time: 06:28:53
(UTC+00:00)

Cosmos 1656 - Pass Details

Date: 15 January 2026
Orbit: 797 x 847 km, 71.1° (Epoch: 10 February)

Event Time Altitude Azimuth Distance (km) Brightness Sun altitude
Rises 19:09:22 0° 331° (NNW) 3,390 7.1 -24.6°
Reaches altitude 10° 19:11:51 10° 328° (NNW) 2,445 6.4 -25.1°
Maximum altitude 19:17:21 60° 250° (WSW) 941 4.1 -26.1°
Drops below altitude 10° 19:22:44 10° 172° (S) 2,394 6.0 -27.0°
Enters shadow 19:24:17 - 169° (S) 2,982 6.5 -27.3°
